Weather History for Orumieh, Iran

Change the Weather History Date:

Tuesday, February 12, 2013

  Actual Average Record
Temperature  
Mean Temperature 38 °F -  
Max Temperature 46 °F 43 °F - ()
Min Temperature 30 °F 26 °F - ()
Degree Days  
Heating Degree Days 27    
Moisture  
Dew Point 35 °F    
Average Humidity 88    
Maximum Humidity 100    
Minimum Humidity 66    
Precipitation  
Precipitation 0.12 in 0.05 in - ()
Sea Level Pressure  
Sea Level Pressure 29.87 in    
Wind  
Wind Speed 4 mph ()    
Max Wind Speed 9 mph    
Max Gust Speed -    
Visibility 4.2 miles    
Events Rain    
T = Trace of Precipitation, MM = Missing Value Source: Averaged Metar Reports

Daily Weather History Graph

Daily Weather History Graph

Search for Another Location

Airport:

Trip Planner

Search our weather history database for the weather conditions in past years. The results will help you decide how hot, cold, wet, or windy it might be!

Date:

Astronomy

Feb. 12, 2013 Rise Set
Actual Time 7:22 AM IRST 6:05 PM IRST
Civil Twilight 6:55 AM IRST 6:32 PM IRST
Nautical Twilight 6:25 AM IRST 7:03 PM IRST
Astronomical Twilight 5:54 AM IRST 7:33 PM IRST
Moon 8:11 AM IRST (2/12) 8:38 PM IRST (2/12)
Length of Visible Light 11h 36m
Length of Day
10h 42m
Waxing Crescent, 5% of the Moon is Illuminated
Feb 12
Waxing Crescent
Feb 18
First Quarter
Feb 25
Full
Mar 5
Last Quarter
Mar 11
New

Hourly Weather History & Observations

Time (IRST) Temp. Windchill Dew Point Humidity Pressure Visibility Wind Dir Wind Speed Gust Speed Precip Events Conditions
12:00 AM 32.0 °F 27.5 °F 32.0 °F 100% 29.89 in 3.1 mi WSW 4.6 mph - N/A   Mist
12:30 AM 32.0 °F - 32.0 °F 100% 29.89 in 2.5 mi SW 2.3 mph - N/A   Mist
1:30 AM 33.8 °F 29.6 °F 33.8 °F 100% 29.89 in 2.5 mi WSW 4.6 mph - N/A   Mist
2:20 AM 33.8 °F 29.6 °F 33.8 °F 100% 29.89 in 2.5 mi West 4.6 mph - N/A   Mist
2:30 AM 33.8 °F 29.6 °F 33.8 °F 100% 29.89 in 2.5 mi West 4.6 mph - N/A   Mist
3:30 AM 33 °F - 32 °F 95% 29.92 in 2 mi West 6.7 mph - -   Mist
3:30 AM 33.8 °F 27.7 °F 32.0 °F 93% 29.89 in 1.9 mi West 6.9 mph - N/A   Mist
4:20 AM 35.6 °F 31.7 °F 33.8 °F 93% 29.86 in 1.9 mi NNW 4.6 mph - N/A   Mist
4:30 AM 35.6 °F 31.7 °F 33.8 °F 93% 29.86 in 1.9 mi NNW 4.6 mph - N/A   Mist
5:20 AM 35.6 °F - 33.8 °F 93% 29.86 in 1.9 mi Calm Calm - N/A   Mist
5:30 AM 35.6 °F - 33.8 °F 93% 29.86 in 1.9 mi Calm Calm - N/A   Mist
6:20 AM 35.6 °F 31.7 °F 33.8 °F 93% 29.86 in 2.5 mi WNW 4.6 mph - N/A   Mist
6:30 AM 35.6 °F 31.7 °F 33.8 °F 93% 29.86 in 2.5 mi WNW 4.6 mph - N/A   Mist
7:20 AM 35.6 °F 29.9 °F 35.6 °F 100% 29.86 in 1.2 mi WSW 6.9 mph - N/A Rain Rain Showers
7:30 AM 35.6 °F 29.9 °F 35.6 °F 100% 29.86 in 1.2 mi WSW 6.9 mph - N/A Rain Rain Showers
8:20 AM 37.4 °F 33.8 °F 37.4 °F 100% 29.89 in 0.6 mi NW 4.6 mph - N/A Rain Rain Showers
8:30 AM 37.4 °F 33.8 °F 37.4 °F 100% 29.89 in 0.6 mi NW 4.6 mph - N/A Rain Rain Showers
9:00 AM 39.2 °F 35.9 °F 37.4 °F 93% 29.89 in 2.5 mi North 4.6 mph - N/A   Mostly Cloudy
9:20 AM 41.0 °F - 39.2 °F 93% 29.89 in 2.5 mi Calm Calm - N/A   Mostly Cloudy
9:30 AM 41 °F - 38 °F 86% 29.93 in 2 mi Calm Calm - - Rain Light Rain Showers
10:00 AM 41.0 °F 38.0 °F 39.2 °F 93% 29.89 in 2.5 mi SSW 4.6 mph - N/A   Mostly Cloudy
10:20 AM 41.0 °F 38.0 °F 37.4 °F 87% 29.89 in 2.5 mi West 4.6 mph - N/A   Mostly Cloudy
10:30 AM 41.0 °F 38.0 °F 37.4 °F 87% 29.89 in 2.5 mi West 4.6 mph - N/A   Mostly Cloudy
11:00 AM 44.6 °F 42.2 °F 39.2 °F 81% 29.86 in 3.1 mi NNE 4.6 mph - N/A   Scattered Clouds
11:20 AM 42.8 °F 40.1 °F 37.4 °F 81% 29.86 in 3.7 mi ENE 4.6 mph - N/A   Scattered Clouds
11:30 AM 42.8 °F 40.1 °F 37.4 °F 81% 29.86 in 3.7 mi ENE 4.6 mph - N/A   Scattered Clouds
12:00 PM 46.4 °F 44.3 °F 39.2 °F 76% 29.86 in 3.7 mi NE 4.6 mph - N/A   Scattered Clouds
12:20 PM 46.4 °F 42.9 °F 39.2 °F 76% 29.86 in 3.7 mi East 6.9 mph - N/A   Mostly Cloudy
12:30 PM 46.4 °F 42.9 °F 39.2 °F 76% 29.86 in 3.7 mi East 6.9 mph - N/A   Mostly Cloudy
1:00 PM 46.4 °F 42.9 °F 37.4 °F 71% 29.86 in 3.7 mi ESE 6.9 mph - N/A   Overcast
1:20 PM 44.6 °F 40.7 °F 39.2 °F 81% 29.83 in 3.7 mi East 6.9 mph - N/A   Overcast
1:30 PM 44.6 °F 40.7 °F 39.2 °F 81% 29.83 in 3.7 mi East 6.9 mph - N/A   Overcast
2:00 PM 46.4 °F 41.9 °F 39.2 °F 76% 29.83 in 3.7 mi ESE 9.2 mph - N/A   Overcast
2:20 PM 44.6 °F 39.7 °F 37.4 °F 76% 29.83 in 5.0 mi NNW 9.2 mph - N/A   Mostly Cloudy
2:30 PM 44.6 °F 39.7 °F 37.4 °F 76% 29.83 in 5.0 mi NNW 9.2 mph - N/A   Mostly Cloudy
3:00 PM 41.0 °F 38.0 °F 37.4 °F 87% 29.83 in 5.0 mi North 4.6 mph - N/A Rain Rain Showers
3:20 PM 41.0 °F 35.2 °F 37.4 °F 87% 29.83 in 5.0 mi NNW 9.2 mph - N/A   Mostly Cloudy
3:30 PM 41 °F - 37 °F 82% 29.89 in 5 mi NNW 8.9 mph - - Rain Light Rain Showers
3:30 PM 41.0 °F 35.2 °F 37.4 °F 87% 29.83 in 5.0 mi NNW 9.2 mph - N/A   Mostly Cloudy
4:00 PM 41.0 °F 38.0 °F 37.4 °F 87% 29.83 in 5.0 mi ENE 4.6 mph - N/A   Mostly Cloudy
4:20 PM 44.6 °F 42.2 °F 35.6 °F 71% 29.83 in 6.2 mi NNE 4.6 mph - N/A   Scattered Clouds
4:30 PM 44.6 °F 42.2 °F 35.6 °F 71% 29.83 in 6.2 mi NNE 4.6 mph - N/A   Scattered Clouds
5:00 PM 44.6 °F 40.7 °F 33.8 °F 66% 29.86 in 6.2 mi NE 6.9 mph - N/A   Partly Cloudy
5:20 PM 42.8 °F 40.1 °F 35.6 °F 76% 29.86 in 6.2 mi North 4.6 mph - N/A   Scattered Clouds
5:30 PM 42.8 °F 40.1 °F 35.6 °F 76% 29.86 in 6.2 mi North 4.6 mph - N/A   Scattered Clouds
6:00 PM 42.8 °F 40.1 °F 35.6 °F 76% 29.86 in 6.2 mi NNE 4.6 mph - N/A   Scattered Clouds
6:20 PM 41.0 °F 38.0 °F 35.6 °F 81% 29.86 in 6.2 mi NNW 4.6 mph - N/A   Scattered Clouds
6:30 PM 41.0 °F 38.0 °F 35.6 °F 81% 29.86 in 6.2 mi NNW 4.6 mph - N/A   Scattered Clouds
7:00 PM 39.2 °F 35.9 °F 33.8 °F 81% 29.86 in 6.2 mi NNW 4.6 mph - N/A   Scattered Clouds
7:20 PM 37.4 °F 33.8 °F 33.8 °F 87% 29.89 in 6.2 mi West 4.6 mph - N/A   Mostly Cloudy
7:30 PM 37.4 °F 33.8 °F 33.8 °F 87% 29.89 in 6.2 mi West 4.6 mph - N/A   Mostly Cloudy
8:20 PM 35.6 °F - 32.0 °F 87% 29.89 in 6.2 mi Calm Calm - N/A   Scattered Clouds
8:30 PM 35.6 °F - 32.0 °F 87% 29.89 in 6.2 mi Calm Calm - N/A   Scattered Clouds
9:00 PM 33.8 °F 29.6 °F 32.0 °F 93% 29.89 in 6.2 mi ESE 4.6 mph - N/A   Scattered Clouds
9:20 PM 32.0 °F 27.5 °F 32.0 °F 100% 29.89 in 6.2 mi WNW 4.6 mph - N/A   Scattered Clouds
9:30 PM 32 °F - 31 °F 95% 29.97 in 6 mi WNW 4.5 mph - -   Partly Cloudy
9:30 PM 32.0 °F 27.5 °F 32.0 °F 100% 29.89 in 6.2 mi WNW 4.6 mph - N/A   Scattered Clouds
10:00 PM 32.0 °F 27.5 °F 30.2 °F 93% 29.89 in 6.2 mi WNW 4.6 mph - N/A   Partly Cloudy
10:20 PM 32.0 °F 27.5 °F 32.0 °F 100% 29.92 in 6.2 mi WNW 4.6 mph - N/A   Partly Cloudy
10:30 PM 32.0 °F 27.5 °F 32.0 °F 100% 29.92 in 6.2 mi WNW 4.6 mph - N/A   Partly Cloudy
11:00 PM 30.2 °F 25.4 °F 28.4 °F 93% 29.92 in 6.2 mi WSW 4.6 mph - N/A   Partly Cloudy
11:30 PM 32.0 °F 27.5 °F 32.0 °F 100% 29.92 in 6.2 mi West 4.6 mph - N/A   Partly Cloudy
11:50 PM 32.0 °F 27.5 °F 32.0 °F 100% 29.92 in 6.2 mi West 4.6 mph - N/A   Partly Cloudy